CW3873 Weather Reports


Display with metric or nautical units.
time (UTC)temp
F
wind
direction
speed
MPH
gust
MPH
rain 1hr
in
rain 24hr
in
rain mn
in
humidity
%
barometer
mb
20210917163304 76 33 3.0 8.0 0.00 0.00 0.00 21 1023.9
20210917162803 75 49 2.0 5.0 0.00 0.00 0.00 21 1023.9
20210917162305 75 53 2.0 7.0 0.00 0.00 0.00 21 1023.9
20210917161804 75 30 2.0 7.0 0.00 0.00 0.00 21 1023.9
20210917161304 74 1 3.0 7.0 0.00 0.00 0.00 21 1023.9
20210917160804 73 45 2.0 9.0 0.00 0.00 0.00 21 1023.8
20210917160304 73 61 3.0 7.0 0.00 0.00 0.00 20 1023.9
20210917155804 72 45 3.0 6.0 0.00 0.00 0.00 21 1023.9
20210917155307 72 74 0.0 3.0 0.00 0.00 0.00 23 1023.9
20210917154803 71 22 2.0 5.0 0.00 0.00 0.00 22 1023.6
20210917154304 70 45 2.0 3.0 0.00 0.00 0.00 22 1023.7
20210917153803 70 62 1.0 3.0 0.00 0.00 0.00 23 1023.7
20210917153303 69 65 0.0 0.0 0.00 0.00 0.00 23 1023.5
20210917152804 69 47 0.0 0.0 0.00 0.00 0.00 24 1023.5
20210917152306 69 47 0.0 1.0 0.00 0.00 0.00 23 1023.6
20210917151803 68 38 1.0 2.0 0.00 0.00 0.00 24 1023.5
20210917151304 67 89 0.0 0.0 0.00 0.00 0.00 24 1023.5
20210917150804 67 154 0.0 1.0 0.00 0.00 0.00 24 1023.5
20210917150304 66 157 0.0 0.0 0.00 0.00 0.00 24 1023.4
20210917145804 65 64 0.0 0.0 0.00 0.00 0.00 25 1023.3
20210917145305 65 40 0.0 0.0 0.00 0.00 0.00 25 1023.3
20210917144804 64 40 0.0 0.0 0.00 0.00 0.00 25 1023.2
20210917144304 63 40 0.0 0.0 0.00 0.00 0.00 25 1023.2
20210917143804 62 38 0.0 0.0 0.00 0.00 0.00 26 1023.2
20210917143304 62 38 0.0 0.0 0.00 0.00 0.00 27 1023.1
20210917142804 61 317 0.0 0.0 0.00 0.00 0.00 28 1023.1
20210917142306 61 317 0.0 0.0 0.00 0.00 0.00 29 1023.0
20210917141804 60 317 0.0 1.0 0.00 0.00 0.00 28 1022.9
20210917141304 60 320 0.0 0.0 0.00 0.00 0.00 28 1022.9
20210917140804 59 318 0.0 1.0 0.00 0.00 0.00 29 1022.8
20210917140304 59 313 0.0 0.0 0.00 0.00 0.00 29 1022.7
20210917135804 59 317 0.0 0.0 0.00 0.00 0.00 30 1022.8
20210917135305 59 317 0.0 0.0 0.00 0.00 0.00 29 1022.7
20210917134804 59 317 0.0 0.0 0.00 0.00 0.00 29 1022.7
20210917134304 58 317 0.0 0.0 0.00 0.00 0.00 29 1022.7
20210917133804 58 317 0.0 0.0 0.00 0.00 0.00 29 1022.7
20210917133304 58 317 0.0 1.0 0.00 0.00 0.00 28 1022.7
20210917132804 58 317 0.0 1.0 0.00 0.00 0.00 27 1022.6
20210917132305 58 317 0.0 0.0 0.00 0.00 0.00 27 1022.5
20210917131804 58 317 0.0 1.0 0.00 0.00 0.00 27 1022.4
20210917131304 58 317 0.0 0.0 0.00 0.00 0.00 27 1022.3
20210917130804 58 317 0.0 0.0 0.00 0.00 0.00 27 1022.2
20210917130304 58 316 0.0 1.0 0.00 0.00 0.00 27 1022.2
20210917125804 58 316 0.0 1.0 0.00 0.00 0.00 27 1022.1
20210917125305 58 316 0.0 0.0 0.00 0.00 0.00 27 1022.1
20210917124804 59 316 0.0 0.0 0.00 0.00 0.00 27 1022.1
20210917124303 59 316 0.0 0.0 0.00 0.00 0.00 27 1022.0
20210917123804 59 316 0.0 0.0 0.00 0.00 0.00 27 1022.0
20210917123304 59 316 0.0 2.0 0.00 0.00 0.00 26 1021.9
20210917122804 59 316 2.0 2.0 0.00 0.00 0.00 26 1021.9
20210917122305 59 316 0.0 0.0 0.00 0.00 0.00 26 1021.7
20210917121803 59 316 0.0 1.0 0.00 0.00 0.00 26 1021.5
20210917121303 59 316 0.0 0.0 0.00 0.00 0.00 25 1021.3
20210917120803 59 316 0.0 2.0 0.00 0.00 0.00 25 1021.2
20210917120304 59 317 1.0 2.0 0.00 0.00 0.00 25 1021.2
20210917115804 60 317 0.0 2.0 0.00 0.00 0.00 25 1021.1
20210917115305 60 317 0.0 2.0 0.00 0.00 0.00 25 1021.0
20210917114803 60 317 0.0 0.0 0.00 0.00 0.00 24 1020.8
20210917114304 60 317 1.0 3.0 0.00 0.00 0.00 25 1020.9
20210917113804 60 317 0.0 2.0 0.00 0.00 0.00 24 1020.9
20210917113304 60 317 0.0 3.0 0.00 0.00 0.00 24 1020.8
20210917112804 61 319 0.0 2.0 0.00 0.00 0.00 24 1020.8
20210917112306 61 319 0.0 2.0 0.00 0.00 0.00 25 1020.8
20210917111804 61 319 0.0 2.0 0.00 0.00 0.00 25 1020.9
20210917111304 62 40 0.0 0.0 0.00 0.00 0.00 25 1020.7
20210917110804 62 40 0.0 0.0 0.00 0.00 0.00 25 1020.7
20210917110304 62 40 0.0 1.0 0.00 0.00 0.00 25 1020.6
20210917105803 62 40 1.0 2.0 0.00 0.00 0.00 25 1020.4
20210917105305 62 42 2.0 3.0 0.00 0.00 0.00 25 1020.3
20210917104804 62 55 1.0 5.0 0.00 0.00 0.00 25 1020.2
20210917104303 62 51 2.0 5.0 0.00 0.00 0.00 23 1020.2
20210917103804 62 50 2.0 3.0 0.00 0.00 0.00 22 1020.0
20210917103304 62 263 2.0 3.0 0.00 0.00 0.00 21 1020.0
20210917102807 62 263 2.0 3.0 0.00 0.00 0.00 21 1020.0
20210917102305 63 273 1.0 3.0 0.00 0.00 0.00 21 1020.0
20210917101803 63 281 2.0 3.0 0.00 0.00 0.00 21 1020.2
20210917101304 63 281 1.0 6.0 0.00 0.00 0.00 21 1020.1
20210917100804 63 273 3.0 6.0 0.00 0.00 0.00 21 1020.0
20210917100303 63 263 1.0 3.0 0.00 0.00 0.00 21 1019.9
20210917095804 63 263 1.0 3.0 0.00 0.00 0.00 21 1019.8
20210917095305 63 274 2.0 3.0 0.00 0.00 0.00 21 1019.8
20210917094803 63 276 2.0 3.0 0.00 0.00 0.00 21 1019.7
20210917094304 63 303 1.0 7.0 0.00 0.00 0.00 21 1019.7
20210917093804 63 277 3.0 7.0 0.00 0.00 0.00 21 1019.6
20210917093303 63 270 1.0 6.0 0.00 0.00 0.00 21 1019.6
20210917092804 63 278 2.0 7.0 0.00 0.00 0.00 20 1019.6
20210917092305 63 279 2.0 6.0 0.00 0.00 0.00 20 1019.6
20210917091803 63 272 3.0 7.0 0.00 0.00 0.00 20 1019.6
20210917091304 63 273 1.0 3.0 0.00 0.00 0.00 20 1019.5
20210917090804 63 273 2.0 3.0 0.00 0.00 0.00 20 1019.5
20210917090303 63 275 2.0 3.0 0.00 0.00 0.00 20 1019.5
20210917085803 63 278 1.0 3.0 0.00 0.00 0.00 19 1019.4
20210917085305 64 290 2.0 3.0 0.00 0.00 0.00 19 1019.4
20210917084803 64 303 1.0 5.0 0.00 0.00 0.00 19 1019.5
20210917084304 64 308 2.0 3.0 0.00 0.00 0.00 19 1019.4
20210917083803 64 308 2.0 3.0 0.00 0.00 0.00 19 1019.3
20210917083303 64 309 2.0 3.0 0.00 0.00 0.00 19 1019.2
20210917082804 64 311 1.0 3.0 0.00 0.00 0.00 19 1019.1
20210917082305 65 311 1.0 3.0 0.00 0.00 0.00 19 1019.1
20210917081803 65 311 2.0 3.0 0.00 0.00 0.00 19 1019.0
20210917081304 65 311 2.0 3.0 0.00 0.00 0.00 19 1019.0
20210917080803 65 311 1.0 3.0 0.00 0.00 0.00 19 1019.0
20210917080304 66 312 2.0 3.0 0.00 0.00 0.00 19 1018.9
20210917075803 66 313 1.0 3.0 0.00 0.00 0.00 19 1018.8
20210917075306 66 325 2.0 3.0 0.00 0.00 0.00 19 1018.7
20210917074804 67 325 1.0 2.0 0.00 0.00 0.00 18 1018.7
20210917074303 67 325 0.0 1.0 0.00 0.00 0.00 18 1018.6
20210917073803 67 325 1.0 3.0 0.00 0.00 0.00 18 1018.5
20210917073304 67 325 0.0 1.0 0.00 0.00 0.00 18 1018.4
20210917072804 68 325 0.0 2.0 0.00 0.00 0.00 19 1018.4
20210917072305 68 325 0.0 0.0 0.00 0.00 0.00 19 1018.4
20210917071804 69 325 0.0 0.0 0.00 0.00 0.00 18 1018.3
20210917071303 69 325 0.0 0.0 0.00 0.00 0.00 18 1018.2
20210917070803 69 325 0.0 0.0 0.00 0.00 0.00 18 1018.2
20210917070304 70 325 0.0 0.0 0.00 0.00 0.00 18 1018.5
20210917065803 70 325 0.0 0.0 0.00 0.00 0.00 18 1018.4
20210917065306 70 325 0.0 2.0 0.00 0.00 0.00 17 1018.2
20210917064804 71 325 0.0 0.0 0.00 0.00 0.00 17 1018.2
20210917064303 71 325 0.0 3.0 0.00 0.00 0.00 17 1018.2
20210917063804 72 30 0.0 0.0 0.00 0.00 0.00 17 1018.3
20210917063304 72 30 0.0 0.0 0.00 0.00 0.00 17 1018.2
20210917062804 73 30 0.0 0.0 0.00 0.00 0.00 17 1018.3
20210917062305 73 30 0.0 0.0 0.00 0.00 0.00 17 1018.2
20210917061804 73 28 0.0 0.0 0.00 0.00 0.00 16 1018.1
20210917061304 73 28 0.0 3.0 0.00 0.00 0.00 16 1018.1
20210917060817 73 29 2.0 5.0 0.00 0.00 0.00 16 1018.0
20210917060304 74 334 3.0 6.0 0.00 0.00 0.00 15 1017.9
20210917055804 74 292 1.0 8.0 0.00 0.00 0.00 16 1017.6
20210917055305 74 304 2.0 10.0 0.00 0.00 0.00 15 1017.6
20210917054803 74 300 5.0 12.0 0.00 0.00 0.00 16 1017.6
20210917054303 74 294 4.0 12.0 0.00 0.00 0.00 16 1017.5
20210917053804 74 292 2.0 9.0 0.00 0.00 0.00 16 1017.5
20210917053304 74 292 3.0 9.0 0.00 0.00 0.00 15 1017.3
20210917052804 74 288 3.0 8.0 0.00 0.00 0.00 15 1017.2
20210917052305 74 290 2.0 10.0 0.00 0.00 0.00 15 1017.2
20210917051804 74 289 4.0 9.0 0.00 0.00 0.00 15 1017.2
20210917051304 74 278 5.0 12.0 0.00 0.00 0.00 15 1017.1
20210917050803 74 285 3.0 12.0 0.00 0.00 0.00 15 1017.1
20210917050303 74 291 5.0 12.0 0.00 0.00 0.00 15 1017.1
20210917045803 74 288 5.0 12.0 0.00 0.00 0.00 15 1017.1
20210917045306 74 290 6.0 14.0 0.00 0.00 0.00 15 1017.1
20210917044803 74 290 5.0 12.0 0.00 0.00 0.00 14 1017.0
20210917044304 74 280 5.0 12.0 0.00 0.00 0.00 14 1016.9
20210917043804 74 281 5.0 12.0 0.00 0.00 0.00 14 1016.9
20210917043303 74 288 3.0 10.0 0.00 0.00 0.00 14 1016.8
20210917042803 75 291 3.0 10.0 0.00 0.00 0.00 14 1016.9
20210917042306 75 289 6.0 12.0 0.00 0.00 0.00 14 1016.9
20210917041804 75 286 3.0 10.0 0.00 0.00 0.00 14 1016.9
20210917041303 75 300 3.0 10.0 0.00 0.00 0.00 13 1016.8
20210917040804 75 287 6.0 12.0 0.00 0.00 0.00 13 1016.8
20210917040304 76 292 5.0 8.0 0.00 0.00 0.00 13 1016.8
20210917035803 76 290 4.0 10.0 0.00 0.00 0.00 13 1016.8
20210917035306 76 285 2.0 9.0 0.00 0.00 0.00 13 1016.9
20210917034804 77 272 1.0 6.0 0.00 0.00 0.00 13 1016.9
20210917034304 77 290 2.0 8.0 0.00 0.00 0.00 13 1016.8
20210917033804 77 285 2.0 9.0 0.00 0.00 0.00 13 1016.7
20210917033303 78 286 2.0 9.0 0.00 0.00 0.00 12 1016.8
20210917032804 78 278 3.0 8.0 0.00 0.00 0.00 12 1016.7
20210917032306 78 283 2.0 8.0 0.00 0.00 0.00 12 1016.7
20210917031803 78 283 1.0 9.0 0.00 0.00 0.00 12 1016.7
20210917031303 79 277 7.0 14.0 0.00 0.00 0.00 12 1016.7
20210917030804 79 276 6.0 12.0 0.00 0.00 0.00 12 1016.6
20210917030303 80 275 6.0 12.0 0.00 0.00 0.00 12 1016.5
20210917025803 80 279 6.0 10.0 0.00 0.00 0.00 12 1016.4
20210917025305 80 269 6.0 10.0 0.00 0.00 0.00 12 1016.3
20210917024803 81 290 5.0 12.0 0.00 0.00 0.00 11 1016.3
20210917024304 81 266 6.0 12.0 0.00 0.00 0.00 11 1016.2
20210917023804 81 269 6.0 10.0 0.00 0.00 0.00 11 1016.1
20210917023303 81 279 6.0 13.0 0.00 0.00 0.00 11 1016.0
20210917022804 82 281 5.0 12.0 0.00 0.00 0.00 11 1015.9
20210917022305 82 277 6.0 14.0 0.00 0.00 0.00 11 1015.8
20210917021803 82 286 3.0 14.0 0.00 0.00 0.00 11 1015.7
20210917021304 83 272 5.0 12.0 0.00 0.00 0.00 11 1015.5
20210917020803 83 275 5.0 12.0 0.00 0.00 0.00 11 1015.3
20210917020304 83 263 4.0 12.0 0.00 0.00 0.00 11 1015.3
20210917015804 84 277 3.0 13.0 0.00 0.00 0.00 11 1015.1
20210917015306 84 288 2.0 9.0 0.00 0.00 0.00 11 1014.9
20210917014803 84 258 4.0 10.0 0.00 0.00 0.00 11 1014.9
20210917014303 84 266 2.0 8.0 0.00 0.00 0.00 11 1014.9
20210917013804 84 256 1.0 7.0 0.00 0.00 0.00 10 1014.8
20210917013304 85 249 5.0 12.0 0.00 0.00 0.00 10 1014.7
20210917012803 85 234 4.0 8.0 0.00 0.00 0.00 10 1014.6
20210917012305 85 245 2.0 7.0 0.00 0.00 0.00 10 1014.5
20210917011804 86 258 3.0 7.0 0.00 0.00 0.00 10 1014.5
20210917011303 86 258 2.0 7.0 0.00 0.00 0.00 10 1014.4
20210917010803 86 263 2.0 6.0 0.00 0.00 0.00 10 1014.4
20210917010304 87 246 3.0 10.0 0.00 0.00 0.00 10 1014.4
20210917005804 87 243 4.0 13.0 0.00 0.00 0.00 10 1014.4
20210917005305 87 257 6.0 12.0 0.00 0.00 0.00 10 1014.5
20210917004803 87 263 3.0 9.0 0.00 0.00 0.00 10 1014.4
20210917004303 88 237 4.0 9.0 0.00 0.00 0.00 10 1014.6
20210917003803 88 256 3.0 10.0 0.00 0.00 0.00 10 1014.5
20210917003303 88 267 1.0 6.0 0.00 0.00 0.00 10 1014.4
20210917002804 88 265 2.0 9.0 0.00 0.00 0.00 9 1014.4
20210917002305 88 250 3.0 7.0 0.00 0.00 0.00 9 1014.4
20210917001803 88 245 6.0 13.0 0.00 0.00 0.00 9 1014.4
20210917001304 89 257 2.0 13.0 0.00 0.00 0.00 9 1014.3
20210917000803 89 244 5.0 12.0 0.00 0.00 0.00 9 1014.3
20210917000303 89 246 5.0 15.0 0.00 0.00 0.00 9 1014.3
20210916235803 89 246 5.0 12.0 0.00 0.00 0.00 9 1014.3
20210916235306 90 283 2.0 13.0 0.00 0.00 0.00 9 1014.3
20210916234804 90 276 6.0 12.0 0.00 0.00 0.00 9 1014.2
20210916234304 90 266 5.0 12.0 0.00 0.00 0.00 9 1014.2
20210916233803 90 231 5.0 12.0 0.00 0.00 0.00 9 1014.1
20210916233303 90 281 5.0 14.0 0.00 0.00 0.00 9 1014.1
20210916232804 90 224 4.0 8.0 0.00 0.00 0.00 10 1014.1
20210916232305 90 238 8.0 16.0 0.00 0.00 0.00 10 1014.1
20210916231803 90 229 6.0 14.0 0.00 0.00 0.00 10 1014.1
20210916231303 90 218 7.0 16.0 0.00 0.00 0.00 10 1014.0
20210916230804 90 225 2.0 6.0 0.00 0.00 0.00 10 1014.1
20210916230304 90 248 1.0 6.0 0.00 0.00 0.00 10 1014.0
20210916225803 90 223 1.0 12.0 0.00 0.00 0.00 10 1014.0
20210916225305 90 204 3.0 9.0 0.00 0.00 0.00 10 1014.0
20210916224804 90 291 5.0 16.0 0.00 0.00 0.00 11 1014.0
20210916224303 90 184 7.0 12.0 0.00 0.00 0.00 11 1014.0
20210916223804 90 226 2.0 10.0 0.00 0.00 0.00 11 1014.0
20210916223304 90 204 3.0 8.0 0.00 0.00 0.00 11 1014.0
20210916222804 90 200 2.0 8.0 0.00 0.00 0.00 11 1014.0
20210916222305 90 217 3.0 12.0 0.00 0.00 0.00 11 1014.1
20210916221804 90 190 7.0 22.0 0.00 0.00 0.00 11 1014.1
20210916221303 90 239 5.0 12.0 0.00 0.00 0.00 11 1013.9
20210916220804 91 198 10.0 17.0 0.00 0.00 0.00 11 1014.3
20210916220303 91 191 3.0 12.0 0.00 0.00 0.00 12 1014.3
20210916215804 91 197 4.0 17.0 0.00 0.00 0.00 12 1014.4
20210916215305 91 227 5.0 17.0 0.00 0.00 0.00 12 1014.4
20210916214804 91 205 9.0 18.0 0.00 0.00 0.00 12 1014.4
20210916214304 91 202 8.0 15.0 0.00 0.00 0.00 12 1014.6
20210916213804 91 222 2.0 9.0 0.00 0.00 0.00 12 1014.5
20210916213304 91 250 3.0 13.0 0.00 0.00 0.00 12 1014.8
20210916212803 91 205 12.0 18.0 0.00 0.00 0.00 12 1014.8
20210916212306 92 230 6.0 15.0 0.00 0.00 0.00 12 1014.9
20210916211803 92 182 6.0 20.0 0.00 0.00 0.00 12 1014.8
20210916211304 92 238 6.0 17.0 0.00 0.00 0.00 12 1014.8
20210916210804 92 216 8.0 16.0 0.00 0.00 0.00 12 1014.9
20210916210304 92 221 5.0 10.0 0.00 0.00 0.00 12 1015.0
20210916205803 92 241 6.0 13.0 0.00 0.00 0.00 12 1015.1
20210916205305 92 223 7.0 22.0 0.00 0.00 0.00 12 1015.2
20210916204804 92 219 6.0 16.0 0.00 0.00 0.00 12 1015.4
20210916204304 92 216 11.0 18.0 0.00 0.00 0.00 12 1015.5
20210916203803 93 170 7.0 13.0 0.00 0.00 0.00 12 1015.5
20210916203304 93 183 7.0 17.0 0.00 0.00 0.00 12 1015.7
20210916202804 93 198 5.0 14.0 0.00 0.00 0.00 12 1015.7
20210916202305 93 224 3.0 14.0 0.00 0.00 0.00 11 1015.7
20210916201803 93 173 6.0 15.0 0.00 0.00 0.00 10 1015.8
20210916201304 94 195 7.0 14.0 0.00 0.00 0.00 11 1016.0
20210916200804 94 240 4.0 10.0 0.00 0.00 0.00 10 1016.0
20210916200303 94 218 6.0 15.0 0.00 0.00 0.00 10 1016.0
20210916195804 94 240 4.0 10.0 0.00 0.00 0.00 11 1016.1
20210916195306 94 245 3.0 10.0 0.00 0.00 0.00 11 1016.3
20210916194804 94 142 6.0 12.0 0.00 0.00 0.00 11 1016.3
20210916194303 93 275 3.0 8.0 0.00 0.00 0.00 12 1016.5
20210916193804 93 227 5.0 9.0 0.00 0.00 0.00 12 1016.5
20210916193304 93 209 6.0 12.0 0.00 0.00 0.00 11 1016.5
20210916192804 93 169 2.0 6.0 0.00 0.00 0.00 13 1016.6
20210916192306 93 161 3.0 8.0 0.00 0.00 0.00 14 1016.8
20210916191803 92 146 3.0 9.0 0.00 0.00 0.00 14 1017.1
20210916191304 92 147 3.0 8.0 0.00 0.00 0.00 14 1017.1
20210916190804 91 163 1.0 6.0 0.00 0.00 0.00 14 1016.9
20210916190304 91 126 2.0 6.0 0.00 0.00 0.00 13 1016.9
20210916185803 91 163 3.0 8.0 0.00 0.00 0.00 13 1017.0
20210916185306 90 138 2.0 8.0 0.00 0.00 0.00 14 1017.1
20210916184804 90 180 3.0 10.0 0.00 0.00 0.00 14 1017.1
20210916184304 90 169 4.0 9.0 0.00 0.00 0.00 14 1017.3
20210916183803 89 75 2.0 10.0 0.00 0.00 0.00 14 1017.3
20210916183304 89 78 3.0 12.0 0.00 0.00 0.00 15 1017.4
20210916182803 88 133 2.0 8.0 0.00 0.00 0.00 15 1017.6
20210916182306 88 93 5.0 9.0 0.00 0.00 0.00 16 1017.6
20210916181804 87 138 1.0 7.0 0.00 0.00 0.00 17 1017.7
20210916181303 87 135 3.0 7.0 0.00 0.00 0.00 16 1017.6
20210916180803 86 93 3.0 8.0 0.00 0.00 0.00 18 1017.8
20210916180303 86 141 5.0 8.0 0.00 0.00 0.00 19 1018.0
20210916175803 85 156 5.0 8.0 0.00 0.00 0.00 19 1018.1
20210916175305 84 146 4.0 8.0 0.00 0.00 0.00 20 1018.2
20210916174803 83 153 4.0 8.0 0.00 0.00 0.00 20 1018.3
20210916174303 82 145 2.0 8.0 0.00 0.00 0.00 21 1018.3
20210916173803 81 126 2.0 7.0 0.00 0.00 0.00 22 1018.4
20210916173303 80 157 3.0 8.0 0.00 0.00 0.00 23 1018.4
20210916172803 79 142 3.0 8.0 0.00 0.00 0.00 24 1018.4
20210916172305 78 173 2.0 6.0 0.00 0.00 0.00 24 1018.6
20210916171803 77 152 2.0 5.0 0.00 0.00 0.00 26 1018.6
20210916171304 76 169 1.0 3.0 0.00 0.00 0.00 26 1018.7
20210916170803 75 129 2.0 3.0 0.00 0.00 0.00 28 1018.8
20210916170303 75 159 2.0 5.0 0.00 0.00 0.00 28 1018.9
20210916165804 74 186 0.0 3.0 0.00 0.00 0.00 28 1018.9
20210916165305 74 179 1.0 3.0 0.00 0.00 0.00 28 1019.1
20210916164803 74 162 1.0 6.0 0.00 0.00 0.00 28 1019.2
20210916164303 73 139 2.0 3.0 0.00 0.00 0.00 29 1018.9
20210916163803 72 97 0.0 3.0 0.00 0.00 0.00 30 1018.8